This is the latest recevied weather packets stored in our database for station/object N5RPG. If no packets are shown the sender has not sent any weather packets the latest 10 day(s).
| Time | Temp. | Humidity | Pressure | Rain* | Wind** | Luminosity | Snow |
|---|---|---|---|---|---|---|---|
| 1778179389 | 21.67° C | 56% | 1018.2 hPa | 0 mm | - | 715 W/m² | - |
| 1778179085 | 21.11° C | 57% | 1018.3 hPa | 0 mm | - | 653 W/m² | - |
| 1778178782 | 20.56° C | 57% | 1018.3 hPa | 0 mm | - | 831 W/m² | - |
| 1778178479 | 20.56° C | 58% | 1018.3 hPa | 0 mm | - | 804 W/m² | - |
| 1778178174 | 20° C | 62% | 1018.2 hPa | 0 mm | - | 735 W/m² | - |
| 1778177871 | 20° C | 60% | 1018.3 hPa | 0 mm | - | 727 W/m² | - |
| 1778177567 | 20° C | 62% | 1018.4 hPa | 0 mm | - | 751 W/m² | - |
| 1778177264 | 20° C | 61% | 1018.6 hPa | 0 mm | - | 127 W/m² | - |
| 1778176961 | 19.44° C | 61% | 1018.5 hPa | 0 mm | - | 139 W/m² | - |
| 1778176656 | 19.44° C | 61% | 1018.4 hPa | 0 mm | - | 449 W/m² | - |
| 1778176354 | 18.89° C | 62% | 1018.6 hPa | 0 mm | - | 519 W/m² | - |
| 1778176051 | 18.89° C | 63% | 1018.7 hPa | 0 mm | - | 137 W/m² | - |
| 1778175749 | 18.33° C | 63% | 1018.9 hPa | 0 mm | - | 373 W/m² | - |
| 1778175446 | 18.33° C | 63% | 1019 hPa | 0 mm | - | 385 W/m² | - |
| 1778175143 | 18.33° C | 62% | 1019 hPa | 0 mm | - | 99 W/m² | - |
| 1778174839 | 18.33° C | 64% | 1019.3 hPa | 0 mm | - | 670 W/m² | - |
| 1778174537 | 18.89° C | 62% | 1019.3 hPa | 0 mm | - | 314 W/m² | - |
| 1778174236 | 18.33° C | 63% | 1019.4 hPa | 0 mm | - | 361 W/m² | - |
| 1778173934 | 17.78° C | 63% | 1019.6 hPa | 0 mm | - | 410 W/m² | - |
| 1778173631 | 17.78° C | 64% | 1019.8 hPa | 0 mm | - | 330 W/m² | - |
| 1778173328 | 18.33° C | 63% | 1019.9 hPa | 0 mm | - | 311 W/m² | - |
| 1778173023 | 18.33° C | 64% | 1019.7 hPa | 0 mm | - | 429 W/m² | - |
| 1778172720 | 18.33° C | 63% | 1019.8 hPa | 0 mm | - | 509 W/m² | - |
| 1778172416 | 18.33° C | 61% | 1019.8 hPa | 0 mm | - | 617 W/m² | - |
| 1778172113 | 18.33° C | 62% | 1019.8 hPa | 0 mm | - | 378 W/m² | - |
* Rain latest hour (hover to see other rain measurements)
** Current wind speed in m/s (hover to see current wind gust speed)